TimePDT,TemperatureF,Dew PointF,Humidity,Sea Level PressureIn,VisibilityMPH,Wind Direction,Wind SpeedMPH,Gust SpeedMPH,PrecipitationIn,Events,Conditions,WindDirDegrees,DateUTC
12:15 AM,33.8,24.8,70,30.09,10.0,Calm,Calm,-,N/A,,Clear,0,2013-03-25 07:15:00
12:35 AM,30.2,24.8,80,30.08,10.0,Calm,Calm,-,N/A,,Clear,0,2013-03-25 07:35:00
12:55 AM,32.0,26.6,80,30.08,10.0,East,3.5,-,N/A,,Clear,100,2013-03-25 07:55:00
1:15 AM,30.2,24.8,80,30.09,10.0,Calm,Calm,-,N/A,,Clear,0,2013-03-25 08:15:00
1:35 AM,30.2,26.6,86,30.09,10.0,Calm,Calm,-,N/A,,Clear,0,2013-03-25 08:35:00
1:55 AM,28.4,24.8,86,30.09,10.0,Calm,Calm,-,N/A,,Clear,0,2013-03-25 08:55:00
2:15 AM,28.4,24.8,86,30.09,10.0,Calm,Calm,-,N/A,,Clear,0,2013-03-25 09:15:00
2:35 AM,28.4,24.8,86,30.09,10.0,Calm,Calm,-,N/A,,Clear,0,2013-03-25 09:35:00
2:55 AM,26.6,23.0,86,30.08,10.0,Calm,Calm,-,N/A,,Clear,0,2013-03-25 09:55:00
3:15 AM,26.6,23.0,86,30.08,10.0,Calm,Calm,-,N/A,,Clear,0,2013-03-25 10:15:00
3:35 AM,26.6,23.0,86,30.08,10.0,Calm,Calm,-,N/A,,Clear,0,2013-03-25 10:35:00
3:55 AM,24.8,23.0,93,30.07,10.0,Calm,Calm,-,N/A,,Clear,0,2013-03-25 10:55:00
4:15 AM,24.8,21.2,86,30.07,10.0,Calm,Calm,-,N/A,,Clear,0,2013-03-25 11:15:00
4:35 AM,24.8,23.0,93,30.07,10.0,Calm,Calm,-,N/A,,Clear,0,2013-03-25 11:35:00
4:55 AM,24.8,19.4,80,30.07,10.0,Calm,Calm,-,N/A,,Clear,0,2013-03-25 11:55:00
5:15 AM,24.8,19.4,80,30.07,10.0,Calm,Calm,-,N/A,,Clear,0,2013-03-25 12:15:00
5:35 AM,24.8,19.4,80,30.07,10.0,Calm,Calm,-,N/A,,Clear,0,2013-03-25 12:35:00
5:55 AM,24.8,19.4,80,30.08,10.0,ESE,3.5,-,N/A,,Clear,120,2013-03-25 12:55:00
6:15 AM,23.0,19.4,86,30.07,10.0,Calm,Calm,-,N/A,,Clear,0,2013-03-25 13:15:00
6:35 AM,23.0,19.4,86,30.08,10.0,Calm,Calm,-,N/A,,Clear,0,2013-03-25 13:35:00
6:55 AM,23.0,19.4,86,30.08,10.0,Calm,Calm,-,N/A,,Scattered Clouds,0,2013-03-25 13:55:00
7:50 AM,24.8,21.2,86,30.08,10.0,Calm,Calm,-,N/A,,Scattered Clouds,0,2013-03-25 14:50:00
8:45 AM,28.4,23.0,80,30.09,10.0,Calm,Calm,-,N/A,,Mostly Cloudy,0,2013-03-25 15:45:00
9:45 AM,37.4,21.2,52,30.08,10.0,Calm,Calm,-,N/A,,Mostly Cloudy,0,2013-03-25 16:45:00
10:50 AM,48.2,19.4,32,30.07,10.0,Calm,Calm,-,N/A,,Mostly Cloudy,0,2013-03-25 17:50:00
11:50 AM,57.2,8.6,14,30.05,10.0,South,16.1,21.9,N/A,,Mostly Cloudy,190,2013-03-25 18:50:00
12:45 PM,57.2,6.8,13,30.04,10.0,West,15.0,19.6,N/A,,Mostly Cloudy,260,2013-03-25 19:45:00
1:45 PM,57.2,8.6,14,30.02,10.0,SSW,11.5,23.0,N/A,,Mostly Cloudy,210,2013-03-25 20:45:00
2:45 PM,57.2,10.4,16,30.00,10.0,SSW,16.1,24.2,N/A,,Mostly Cloudy,210,2013-03-25 21:45:00
3:45 PM,57.2,14.0,18,29.99,10.0,WSW,15.0,24.2,N/A,,Mostly Cloudy,240,2013-03-25 22:45:00
4:45 PM,53.6,17.6,24,29.99,10.0,SW,12.7,23.0,N/A,,Scattered Clouds,230,2013-03-25 23:45:00
5:45 PM,51.8,23.0,33,29.99,10.0,West,18.4,21.9,N/A,,Scattered Clouds,270,2013-03-26 00:45:00
5:55 PM,51.8,23.0,33,29.98,10.0,WSW,16.1,19.6,N/A,,Clear,240,2013-03-26 00:55:00
6:15 PM,50.0,23.0,35,29.98,10.0,WSW,12.7,21.9,N/A,,Clear,250,2013-03-26 01:15:00
6:35 PM,48.2,23.0,37,29.99,10.0,SW,11.5,18.4,N/A,,Clear,220,2013-03-26 01:35:00
6:55 PM,46.4,23.0,40,29.99,10.0,SW,12.7,20.7,N/A,,Clear,220,2013-03-26 01:55:00
7:15 PM,46.4,23.0,40,29.99,10.0,SW,11.5,16.1,N/A,,Clear,220,2013-03-26 02:15:00
7:35 PM,42.8,23.0,46,30.00,10.0,SW,8.1,-,N/A,,Clear,230,2013-03-26 02:35:00
7:55 PM,42.8,23.0,46,29.99,10.0,SSW,5.8,-,N/A,,Scattered Clouds,200,2013-03-26 02:55:00
8:15 PM,41.0,23.0,49,29.99,10.0,SSW,8.1,-,N/A,,Scattered Clouds,210,2013-03-26 03:15:00
8:35 PM,41.0,23.0,49,29.99,10.0,SSW,10.4,-,N/A,,Partly Cloudy,210,2013-03-26 03:35:00
8:55 PM,41.0,19.4,42,29.99,10.0,SSW,10.4,-,N/A,,Clear,210,2013-03-26 03:55:00
9:15 PM,41.0,17.6,39,29.99,10.0,SW,10.4,-,N/A,,Clear,220,2013-03-26 04:15:00
9:35 PM,41.0,17.6,39,29.99,10.0,SW,8.1,-,N/A,,Clear,220,2013-03-26 04:35:00
9:55 PM,37.4,19.4,48,29.99,10.0,SSW,6.9,-,N/A,,Clear,210,2013-03-26 04:55:00
10:15 PM,39.2,19.4,45,29.99,10.0,SSW,6.9,-,N/A,,Clear,210,2013-03-26 05:15:00
10:35 PM,37.4,17.6,45,30.00,10.0,SW,6.9,-,N/A,,Clear,230,2013-03-26 05:35:00
10:55 PM,35.6,19.4,52,30.01,10.0,SW,9.2,-,N/A,,Clear,230,2013-03-26 05:55:00
11:15 PM,35.6,17.6,48,30.02,10.0,WSW,6.9,-,N/A,,Clear,240,2013-03-26 06:15:00
11:35 PM,35.6,19.4,52,30.02,10.0,SW,5.8,-,N/A,,Clear,230,2013-03-26 06:35:00
11:55 PM,37.4,19.4,48,30.01,10.0,Calm,Calm,-,N/A,,Clear,0,2013-03-26 06:55:00